Location: Seattle
(47.6064°N, 122.3308°W)
Time: 15:57:17
(UTC-08:00)

S-56A Canister/Altair - Pass Details

Date: 08 October 2022
Orbit: 638 x 2494 km, 38.9° (Epoch: 03 December)

Event Time Altitude Azimuth Distance (km) Brightness Sun altitude
Exits shadow 05:45:12 21° 248° (WSW) 2,778 9.7 -16.5°
Maximum altitude 05:48:48 28° 214° (SW) 2,183 9.5 -15.9°
Drops below altitude 10° 05:54:25 10° 157° (SSE) 2,769 10.6 -14.9°
Sets 05:57:00 0° 145° (SE) 3,505 11.3 -14.5°
